Regional Weather Roundup
Issued by NWS

Home | Current Version | Previous Version | Graphics & Text | Print | Product List | Glossary On
Versions: 1 2 3 4 5 6 7 8 9 10 11 12 13 14 15 16 17 18 19 20 21 22 23 24 25 26 27 28 29 30 31 32 33 34 35 36 37 38 39 40 41 42 43 44 45 46 47 48 49 50
000
ASUS43 KLMK 311210
RWRKY
KENTUCKY REGIONAL WEATHER ROUNDUP
NATIONAL WEATHER SERVICE LOUISVILLE KY
800 AM EDT FRI JUL 31 2015

NOTE "FAIR" INDICATES FEW OR NO CLOUDS BELOW 12,000 FEET
WITH NO SIGNIFICANT WEATHER AND/OR OBSTRUCTIONS TO VISIBILITY.

KYZ001>023-026-027-061>063-070>075-311300-
WESTERN AND SOUTH CENTRAL KENTUCKY

CITY           SKY/WX    TMP DP  RH WIND       PRES   REMARKS
PADUCAH        SUNNY     69  65  86 W3        30.11R
HENDERSON      SUNNY    N/A N/A N/A MISG        N/A
OWENSBORO      SUNNY     70  66  86 CALM      30.10R
HOPKINSVILLE   SUNNY     69  65  85 W2        30.09S
BOWLING GREEN  SUNNY     70  64  81 CALM      30.10R
GLASGOW        SUNNY    N/A N/A N/A CALM      30.10R
$$

KYZ024-025-028>034-038-045-046-053-311300-
NORTH CENTRAL KENTUCKY

CITY           SKY/WX    TMP DP  RH WIND       PRES   REMARKS
LOUISVILLE/SDF MOSUNNY   72  63  73 CALM      30.08R
LOUISVILLE/LOU SUNNY     70  64  81 CALM      30.09R
FORT KNOX      SUNNY     65  63  91 CALM      30.08R
$$

KYZ035>037-039>044-047>052-055>060-089>105-311300-
NORTHEAST KENTUCKY

CITY           SKY/WX    TMP DP  RH WIND       PRES   REMARKS
LEXINGTON      SUNNY     66  62  87 CALM      30.09R
COVINGTON      SUNNY     66  61  85 CALM      30.07R
FRANKFORT      SUNNY     64  60  87 CALM      30.08R
$$

KYZ054-064>069-076>088-106>120-311300-
SOUTHEAST KENTUCKY

CITY           SKY/WX    TMP DP  RH WIND       PRES   REMARKS
JACKSON        SUNNY     64  60  87 CALM      30.10R
LONDON         SUNNY     64  59  83 CALM      30.10S
SOMERSET       SUNNY     61  61 100 CALM      30.12R
MIDDLESBORO    FOG       60  60 100 CALM      30.12S VSB 3/4
MONTICELLO     SUNNY     63  63 100 CALM      30.13R
$$




USA.gov is the U.S. government's official web portal to all federal, state and local government web resources and services.